Regional Weather Roundup
Issued by NWS

Home | Current Version | Previous Version | Text Only | Print | Product List | Glossary On
Versions: 1 2 3 4 5 6 7 8 9 10 11 12 13 14 15 16 17 18 19 20 21 22 23 24 25 26 27 28 29 30 31 32 33 34 35 36 37 38 39 40 41 42 43 44 45 46 47 48 49 50
000
ASUS43 KLOT 020410
RWRIL

ILLINOIS REGIONAL WEATHER ROUNDUP
NATIONAL WEATHER SERVICE CHICAGO/ROMEOVILLE IL
1100 PM CDT MON SEP 01 2014

NOTE: "FAIR" INDICATES FEW OR NO CLOUDS BELOW 12,000 FEET WITH NO
SIGNIFICANT WEATHER AND/OR OBSTRUCTIONS TO VISIBILITY.

* THESE STATIONS ARE NOT UNDER NWS QUALITY CONTROL. THEY ALSO MAY NOT
  REPORT WEATHER SUCH AS PRECIPITATION OR FOG.

ILZ001-002-007-009-015-016-024-020500-
NORTHWEST ILLINOIS

CITY           SKY/WX    TMP DP  RH WIND       PRES   REMARKS
MOLINE         CLOUDY    70  66  87 S5        29.88R
STERLING*      CLOUDY    72  66  83 SW3       29.87R
SAVANNA*       CLOUDY    71  65  83 SE5       29.84F
$$

ILZ003-004-008-010-011-017-018-020500-
NORTH CENTRAL ILLINOIS

CITY           SKY/WX    TMP DP  RH WIND       PRES   REMARKS
ROCKFORD       CLOUDY    69  66  90 W3        29.87R
FREEPORT*      CLOUDY    68  66  94 W3        29.88S
ROCHELLE*      MOCLDY    68  66  92 SW5       29.87R
DE KALB*       MOCLDY    69  65  88 SW7       29.88R
PERU*          CLOUDY    72  66  83 SW8       29.88R
$$

ILZ005-006-012>014-019>023-020500-
NORTHEAST ILLINOIS

CITY           SKY/WX    TMP DP  RH WIND       PRES   REMARKS
CHICAGO-OHARE  CLOUDY    72  66  81 SW6       29.85R
CHICAGO-MIDWAY CLOUDY    77  67  71 W10       29.84R
AURORA         MOCLDY    73  66  78 SW5       29.86R
LANSING*         N/A    N/A N/A N/A MISG        N/A
JOLIET*        MOCLDY    72  65  80 SW5       29.87R
WAUKEGAN       CLEAR     68  65  90 SW3       29.84R
DUPAGE AIRPORT CLOUDY    72  68  87 SW8       29.86R
KANKAKEE*      CLOUDY    69  66  90 SW7       29.89R
WHEELING       CLOUDY    72  68  87 SW3       29.86R
MORRIS*        MOCLDY    71  67  88 SW7       29.86R
ROMEOVILLE*    MOCLDY    73  65  76 W9        29.86R
NORTHERLY ISL    N/A     76  65  68 W7          N/A
$$

LMZ740>746-020500-
SOUTHERN LAKE MICHIGAN

STATION/POSITION SKY/WX   TEMP    WIND        PRES    VSBY  WAVE
                          AIR SEA DIR/SP/G                  HT/PER
                          (F)     (DEG/KT/KT) (MB)    (MI)  (FT/S)
SOUTHERN BUOY              71 70  240/  8/ 10 1009.5R         2/ 4
WAUKEGAN HARBOR            69     260/  7/ 10   N/A
HARRISON CRIB              75     240/ 10/ 12   N/A
BURNHAM HARBOR             76     220/  4/ 12   N/A
CALUMET HARBOR             74     210/  6/  9 1009.6R
MICHIGAN CITY              73     190/ 14/ 19   N/A
MICHIGAN CITY 6N           74 72  210/ 10/ 14   N/A           2/ 3
ST. JOSEPH                 73 72  200/ 12/ 16   N/A           3/ 4
$$

ILZ025>027-034>036-040-047-049-050-058-095>099-020500-
WEST-CENTRAL ILLINOIS

CITY           SKY/WX    TMP DP  RH WIND       PRES   REMARKS
QUINCY         MOCLDY    72  69  90 S8        29.90S
GALESBURG*     CLOUDY    70  68  93 SW6       29.89S
MACOMB*        MOCLDY    71  68  92 SW3       29.92S
JACKSONVILLE*  CLOUDY    73  71  95 S6        29.90F
PITTSFIELD*    CLOUDY    71  69  92 CALM      29.91F
$$

ILZ028>032-037-038-041>044-048-051>054-059>061-020500-
CENTRAL ILLINOIS

CITY           SKY/WX    TMP DP  RH WIND       PRES   REMARKS
PONTIAC        CLOUDY    73  70  88 SW6       29.90R
DECATUR        LGT RAIN  73  69  87 SW15G23   29.95R
PEORIA         CLOUDY    74  66  76 SW6       29.90R
LACON*         CLOUDY    71  66  83 S3        29.88R
LINCOLN*       CLOUDY    73  69  86 SW5       29.88R
SPRINGFIELD    LGT RAIN  72  70  93 S12       29.93R
TAYLORVILLE    TSTM      68  68 100 SW5       29.93F
$$

ILZ033-039-045-046-055>057-062-063-020500-
EAST-CENTRAL ILLINOIS

CITY           SKY/WX    TMP DP  RH WIND       PRES   REMARKS
CHAMPAIGN      RAIN      71  69  93 SW10      29.94R
DANVILLE*      CLOUDY    72  67  86 SW10      29.90R
RANTOUL*       CLOUDY    73  67  79 SW8       29.92R
MATTOON        LGT RAIN  74  68  81 W9        29.95R
PARIS*         MIX PCPN  72  68  87 SW5       29.92S
$$

ILZ079-100>102-020500-
SOUTHWEST ILLINOIS

CITY           SKY/WX    TMP DP  RH WIND       PRES   REMARKS
BELLEVILLE     MOCLDY    76  72  88 VRB5      29.88R
CAHOKIA*       CLOUDY    78  70  76 NW5       29.89R HX  80
SPARTA*        CLOUDY    77  72  84 S7        29.90F
$$

ILZ064>066-069>071-074>076-080>082-084>086-088>090-092>094-020500-
SOUTH-CENTRAL ILLINOIS

CITY           SKY/WX    TMP DP  RH WIND       PRES   REMARKS
CARBONDALE     MOCLDY    76  72  87 S6        29.91F
CAIRO*         CLEAR     81  73  76 S6        29.93S HX  85
EFFINGHAM*     RAIN      73  68  85 N5        29.91F
MARION         PTCLDY    77  73  88 S5        29.93S
MT. VERNON     MOCLDY    75  68  78 SE7       29.90F
CENTRALIA*     CLOUDY    73  70  88 S9        29.87F
SALEM*         RAIN      75  73  91 S7        29.89F
METROPOLIS*    CLEAR     79  73  81 S6        29.94F HX  82
$$

ILZ067-068-072-073-078-083-087-091-020500-
SOUTHEAST ILLINOIS

CITY           SKY/WX    TMP DP  RH WIND       PRES   REMARKS
LAWRENCEVILLE  CLOUDY    75  71  87 SW9       29.93S
FLORA*         CLEAR     73  70  91 SE6       29.90F
FAIRFIELD*     MOCLDY    75  73  94 SE5       29.90F
HARRISBURG*    CLEAR     76  74  95 S5        29.94S
ROBINSON*      MOCLDY    75  72  92 SW5       29.92F
CARMI*         CLOUDY    77  74  92 SE7       29.93S
$$

ABBREVIATIONS USED IN REMARKS
   TC - TEMPERATURE IN CELSIUS
  WCI - WIND CHILL INDEX
   HX - HEAT INDEX
  VSB - VISIBILITY
$$




USA.gov is the U.S. government's official web portal to all federal, state and local government web resources and services.